Weather History for KDCU - January, 2013

Change the Weather History Date:

Thursday, January 17, 2013

  Actual Average Record
Temperature  
Mean Temperature 38 °F -  
Max Temperature 42 °F 47 °F 72 °F (1990)
Min Temperature 35 °F 28 °F -6 °F (1982)
Degree Days  
Heating Degree Days 26    
Moisture  
Dew Point 31 °F    
Average Humidity 80    
Maximum Humidity 93    
Minimum Humidity 70    
Precipitation  
Precipitation 0.19 in - - ()
Sea Level Pressure  
Sea Level Pressure 30.12 in    
Wind  
Wind Speed 12 mph (NNW)    
Max Wind Speed 25 mph    
Max Gust Speed 34 mph    
Visibility 8 miles    
Events      
Averages and records for this station are not official NWS values.
T = Trace of Precipitation, MM = Missing Value Source: NWS Daily Summary

Daily Weather History Graph

Daily Weather History Graph

Search for Another Location

Airport or City:

Trip Planner

Search our weather history database for the weather conditions in past years. The results will help you decide how hot, cold, wet, or windy it might be!

Date:

Astronomy

Jan. 17, 2013 Rise Set
Actual Time 6:53 AM CST 5:02 PM CST
Civil Twilight 6:26 AM CST 5:29 PM CST
Nautical Twilight 5:55 AM CST 6:00 PM CST
Astronomical Twilight 5:25 AM CST 6:30 PM CST
Moon 10:18 AM CST (1/17) 11:33 PM CST (1/17)
Length of Visible Light 11h 03m
Length of Day
10h 08m
Waxing Crescent, 38% of the Moon is Illuminated
Jan 17
Waxing Crescent
Jan 18
First Quarter
Jan 26
Full
Feb 3
Last Quarter
Feb 10
New

Hourly Weather History & Observations

Time (CST) Temp. Windchill Dew Point Humidity Pressure Visibility Wind Dir Wind Speed Gust Speed Precip Events Conditions
12:53 AM 37.9 °F 30.9 °F 36.0 °F 93% 30.06 in 8.0 mi North 10.4 mph - N/A   Overcast
1:53 AM 37.9 °F 32.1 °F 36.0 °F 93% 30.05 in 7.0 mi NNE 8.1 mph - N/A   Overcast
2:46 AM 37.4 °F 30.8 °F 35.6 °F 93% 30.02 in 6.0 mi NNE 9.2 mph - N/A   Overcast
2:53 AM 37.9 °F 31.5 °F 36.0 °F 93% 30.02 in 6.0 mi NNE 9.2 mph - N/A   Overcast
3:53 AM 37.9 °F 30.5 °F 34.0 °F 86% 30.01 in 7.0 mi North 11.5 mph - 0.01 in   Overcast
4:53 AM 37.0 °F 29.8 °F 33.1 °F 86% 30.01 in 10.0 mi North 10.4 mph - N/A   Overcast
5:53 AM 37.0 °F 27.4 °F 28.9 °F 73% 30.00 in 10.0 mi NNE 17.3 mph 23.0 mph 0.01 in   Overcast
6:53 AM 37.0 °F 29.3 °F 28.0 °F 70% 29.97 in 10.0 mi NNE 11.5 mph - N/A   Mostly Cloudy
7:53 AM 36.0 °F 26.3 °F 27.0 °F 70% 29.99 in 10.0 mi North 16.1 mph - N/A   Overcast
8:53 AM 36.0 °F 26.3 °F 28.0 °F 73% 30.01 in 10.0 mi North 16.1 mph 24.2 mph N/A   Overcast
9:53 AM 35.1 °F 23.8 °F 28.0 °F 76% 29.99 in 8.0 mi NNW 20.7 mph 28.8 mph 0.03 in   Overcast
10:53 AM 35.1 °F 24.8 °F 27.0 °F 72% 30.04 in 7.0 mi NW 17.3 mph - 0.01 in   Overcast
11:43 AM 35.6 °F 26.2 °F 28.4 °F 75% 30.02 in 3.0 mi NNW 15.0 mph - 0.03 in   Haze
11:51 AM 35.6 °F 27.1 °F 28.4 °F 75% 30.02 in 1.8 mi NNW 12.7 mph 25.3 mph 0.03 in   Haze
11:52 AM 35.1 °F 25.9 °F 28.0 °F 76% 30.03 in 1.8 mi NNW 13.8 mph 25.3 mph 0.03 in   Haze
12:00 PM 35.6 °F 26.6 °F 28.4 °F 75% 30.02 in 3.0 mi NNW 13.8 mph - N/A   Haze
12:53 PM 36.0 °F 26.3 °F 32.0 °F 86% 30.01 in 4.0 mi NNW 16.1 mph 21.9 mph 0.04 in   Overcast
1:53 PM 37.9 °F 30.5 °F 35.1 °F 89% 30.04 in 10.0 mi NW 11.5 mph 18.4 mph 0.06 in   Overcast
2:53 PM 42.1 °F 32.1 °F 33.1 °F 70% 30.09 in 10.0 mi NNW 25.3 mph 32.2 mph N/A   Overcast
3:53 PM 42.1 °F 32.8 °F 33.1 °F 70% 30.16 in 10.0 mi NNW 21.9 mph 34.5 mph N/A   Overcast
4:53 PM 42.1 °F 34.2 °F 33.1 °F 70% 30.23 in 10.0 mi NNW 16.1 mph 25.3 mph N/A   Mostly Cloudy
5:53 PM 41.0 °F 33.9 °F 33.1 °F 73% 30.29 in 10.0 mi NNW 12.7 mph - N/A   Clear
6:53 PM 39.0 °F 31.8 °F 33.1 °F 79% 30.32 in 10.0 mi NNW 11.5 mph - N/A   Clear
7:53 PM 37.0 °F 32.4 °F 32.0 °F 82% 30.35 in 10.0 mi NW 5.8 mph - N/A   Clear
8:53 PM 37.9 °F 31.5 °F 32.0 °F 79% 30.37 in 10.0 mi NNW 9.2 mph - N/A   Clear
9:53 PM 36.0 °F 29.6 °F 30.9 °F 82% 30.40 in 10.0 mi NNW 8.1 mph - N/A   Clear
10:53 PM 35.1 °F 27.9 °F 30.9 °F 85% 30.42 in 10.0 mi North 9.2 mph - N/A   Clear
11:53 PM 35.1 °F 29.3 °F 30.9 °F 85% 30.43 in 10.0 mi North 6.9 mph - N/A   Clear